The Dalles, WA

7:04 AM PST on December 15, 2019 (GMT -0800)
Columbia Gorge Regional-The Dalles

Weather History for KDLS - October, 2019

Change the Weather History Date:

Saturday, October 26, 2019

  Actual Average Record
Temperature  
Mean Temperature 48 °F -  
Max Temperature 61 °F 59 °F 71 °F (1998)
Min Temperature 37 °F 40 °F 26 °F (1978)
Degree Days  
Heating Degree Days 17    
Moisture  
Dew Point 36 °F    
Average Humidity 65    
Maximum Humidity 89    
Minimum Humidity 38    
Precipitation  
Precipitation 0.09 in - - ()
Sea Level Pressure  
Sea Level Pressure 30.28 in    
Wind  
Wind Speed 10 mph (WNW)    
Max Wind Speed 16 mph    
Max Gust Speed 22 mph    
Visibility 10 miles    
Events Rain    
Averages and records for this station are not official NWS values.
T = Trace of Precipitation, MM = Missing Value Source: NWS Daily Summary

Daily Weather History Graph

Daily Weather History Graph

Search for Another Location

Airport or City:

Astronomy

Oct. 26, 2019 Rise Set
Actual Time 7:35 AM PDT 6:00 PM PDT
Civil Twilight 7:05 AM PDT 6:31 PM PDT
Nautical Twilight 6:30 AM PDT 7:05 PM PDT
Astronomical Twilight 5:56 AM PDT 7:40 PM PDT
Moon 5:28 AM PDT (10/26) 5:46 PM PDT (10/26)
Length of Visible Light 11h 25m
Length of Day
10h 24m
Waning Crescent, 3% of the Moon is Illuminated
Oct 26
Waning Crescent
Oct 27
New
Nov 4
First Quarter
Nov 12
Full
Nov 19
Last Quarter

Hourly Weather History & Observations

Time (PDT) Temp. Windchill Dew Point Humidity Pressure Visibility Wind Dir Wind Speed Gust Speed Precip Events Conditions
12:53 AM 50.0 °F - 33.1 °F 52% 30.24 in 10.0 mi WSW 13.8 mph 21.9 mph N/A   Clear
1:53 AM 48.0 °F - 33.1 °F 56% 30.27 in 10.0 mi NW 6.9 mph - N/A   Partly Cloudy
2:53 AM 44.1 °F 40.1 °F 33.1 °F 65% 30.28 in 10.0 mi NW 6.9 mph - N/A   Clear
3:53 AM 46.9 °F - 33.1 °F 59% 30.25 in 10.0 mi WNW 13.8 mph - N/A   Clear
4:53 AM 46.9 °F - 36.0 °F 66% 30.25 in 10.0 mi NW 8.1 mph - N/A   Clear
5:53 AM 46.9 °F - 36.0 °F 66% 30.25 in 10.0 mi WNW 9.2 mph - N/A   Clear
6:53 AM 48.0 °F - 37.0 °F 66% 30.26 in 10.0 mi WNW 12.7 mph - N/A   Clear
7:53 AM 46.9 °F - 37.9 °F 71% 30.26 in 10.0 mi NW 12.7 mph - N/A   Clear
8:53 AM 48.9 °F - 37.9 °F 66% 30.27 in 10.0 mi NW 10.4 mph 19.6 mph N/A   Clear
9:53 AM 51.1 °F - 39.0 °F 63% 30.27 in 10.0 mi NW 13.8 mph - N/A   Clear
10:53 AM 54.0 °F - 39.0 °F 57% 30.25 in 10.0 mi NW 15.0 mph - N/A   Clear
11:53 AM 55.9 °F - 37.9 °F 51% 30.24 in 10.0 mi NW 16.1 mph - N/A   Clear
12:53 PM 57.9 °F - 36.0 °F 44% 30.23 in 10.0 mi NNW 13.8 mph - N/A   Clear
1:53 PM 59.0 °F - 35.1 °F 41% 30.22 in 10.0 mi WNW 8.1 mph 16.1 mph N/A   Scattered Clouds
2:19 PM 59.0 °F - 33.1 °F 38% 30.22 in 10.0 mi Calm Calm - N/A   Mostly Cloudy
2:53 PM 50.0 °F - 39.0 °F 66% 30.23 in 8.0 mi WNW 8.1 mph 18.4 mph 0.08 in Rain Light Rain
3:53 PM 48.9 °F - 39.0 °F 69% 30.25 in 10.0 mi WSW 10.4 mph - 0.00 in   Mostly Cloudy
4:53 PM 50.0 °F - 39.9 °F 68% 30.29 in 10.0 mi SSW 6.9 mph - 0.01 in   Mostly Cloudy
5:53 PM 46.9 °F - 39.0 °F 74% 30.32 in 10.0 mi Variable 3.5 mph - N/A   Scattered Clouds
6:53 PM 45.0 °F 43.5 °F 39.0 °F 80% 30.34 in 8.0 mi SSW 3.5 mph - N/A   Partly Cloudy
8:53 PM 41.0 °F 38.0 °F 36.0 °F 82% 30.38 in 10.0 mi North 4.6 mph - N/A   Clear
9:53 PM 41.0 °F 39.0 °F 35.1 °F 79% 30.40 in 10.0 mi South 3.5 mph - N/A   Clear
10:53 PM 37.0 °F 31.0 °F 33.1 °F 86% 30.42 in 10.0 mi SE 8.1 mph - N/A   Clear
11:53 PM 37.0 °F 34.5 °F 34.0 °F 89% 30.42 in 10.0 mi Variable 3.5 mph - N/A   Clear